CZ-6A DEB, 55208

Orbit data source: Space-Track

CZ-6A DEB, 55208 is space debris in SSO originally from a launch on Fri, 11 Nov 2022 UTC launched from the Taiyaun Space Center, China (TSC). Debris objects in space refer to the collection of defunct objects orbiting the Earth. Examples of debris include non-operational satellites, rocket bodies, and fragments generated from explosions, collisions, or faulty payload assembly.

Loading next visibility...
Identifier
55208, 2022-151VZ
Orbit
SSO
Country
Flag of CNCN / PRC
Related business
Manufacturer
SAST
Mission
Spacecraft
Bus & Motor
Unknown
Mass
Unknown
Launch date (UTC)
2022-11-11 (4 years ago)
Launch vehicle
Unknown
Launch site
Taiyaun Space Center, China (TSC)
Object type
Payload
Rocket body
Debris
Shape & HBR
Unknown shape, 0.1 m
Radar Cross Section
Small (<0.1 m²)

Expand to show TLE details & history
Last TLE update: 2 days ago

TLE from 2 days ago
0 CZ-6A DEB
1 55208U 22151VZ  26171.16337973  .00027101  00000-0  26201-2 0  9991
2 55208  98.6273 247.3741 0046078 240.7534 118.9071 14.91956584185963
Epoch: 2026-06-20T03:55Z
TLE epoch observation values (Epoch: 2026-06-20T03:55:16.008Z)
Latitude
-0.00006°
Longitude
-79.82454°
Altitude
610.491 km
Speed
7.546 km/s
True Right ascension
16h 29m 29s
True Declination
0° 00' 00"
Sunlit
Object was in full shadow at epoch
Visualization orbit readout
Latitude
Unknown
Longitude
Unknown
Altitude
Unknown
Speed
Unknown
Apparent Right ascension
Unknown
Apparent Declination
Unknown
Sunlit
N/A
Visualization observer readout
Local Sidereal Time
21:42:13
Azimuth
Unknown
Elevation
Unknown
Doppler factor
Unknown
Orbital elements
Apogee altitude
620.997 km
Perigee altitude
556.792 km
Semi-major axis
6,967.031 km
Eccentricity
0.00461
Inclination
98.6273°
RAAN
247.3741°
Arg. of periapsis
240.7534°
True anomaly
119.36804°
Mean anomaly
118.9071°
Eccentric anomaly
119.1377°
Mean motion
3.73226 °/min
Orbital period
96.46 mins
BSTAR
0.0026201
Loading maneuver chart data...
Computing Atmospheric mass density...
Loading historical data...
Loading historical data...
Loading historical data...
Loading historical data...
Loading historical data...
Loading historical data...
Loading historical data...

Documentation

Showing up to 5 results
|